{"data":{"norad_id":64825,"epoch":"2026-09-21T20:07:12.406656Z","epoch_age_seconds":58834,"freshness":"FRESH","line1":"1 64825U 25151K   26264.83833804  .00000521  00000+0  97357-4 0  9998","line2":"2 64825  51.8980 148.2246 0001170  99.9158 260.1936 14.79931568 64421","mean_motion":14.79931568,"eccentricity":0.000117,"inclination_deg":51.898,"raan_deg":148.2246,"arg_perigee_deg":99.9158,"mean_anomaly_deg":260.1936,"bstar":9.7357e-5,"rev_number":6442,"period_min":97.301796321977,"perigee_km":628.72025142128,"apogee_km":630.3600478743,"semimajor_km":7007.6771496478,"source":"CELESTRAK","updated_at":"2026-09-22T09:00:29.975712Z"}}